Weather History for Pampa / Mesa Vista, TX

Change the Weather History Date:

Wednesday, February 22, 2012

  Actual Average (KBGD) Record (KBGD)
Temperature  
Mean Temperature 52 °F 43 °F  
Max Temperature 73 °F 56 °F 82 °F (1996)
Min Temperature 32 °F 31 °F 13 °F (1966)
Degree Days  
Heating Degree Days 12 22  
Month to date heating degree days 517  
Since 1 July heating degree days 2869  
Cooling Degree Days 0 0  
Month to date cooling degree days 0  
Year to date cooling degree days 0  
Growing Degree Days 2 (Base 50)    
Moisture  
Dew Point 24 °F    
Average Humidity 41    
Maximum Humidity 70    
Minimum Humidity 14    
Precipitation  
Precipitation 0.00 in 0.02 in 0.73 in (1975)
Month to date precipitation 0.51  
Year to date precipitation 1.10  
Snow  
Snow 0.00 in - 9.00 in (1975)
Month to date snowfall  
Since 1 July snowfall  
Snow Depth -    
Sea Level Pressure  
Sea Level Pressure 29.70 in    
Wind  
Wind Speed 7 mph (SW)    
Max Wind Speed 17 mph    
Max Gust Speed 23 mph    
Visibility 10 miles    
Events      
T = Trace of Precipitation, MM = Missing Value Source: NWS Daily Summary

Daily Weather History Graph

Daily Weather History Graph

Search for Another Location

Airport:

Trip Planner

Search our weather history database for the weather conditions in past years. The results will help you decide how hot, cold, wet, or windy it might be!

Date:

Astronomy

Feb. 22, 2012 Rise Set
Actual Time 7:23 AM CST 6:32 PM CST
Civil Twilight 6:57 AM CST 6:58 PM CST
Nautical Twilight 6:27 AM CST 7:27 PM CST
Astronomical Twilight 5:58 AM CST 7:57 PM CST
Moon 7:26 AM CST (2/22) 7:36 PM CST (2/22)
Length of Visible Light 12h 00m
Length of Day
11h 08m
New Moon, 1% of the Moon is Illuminated
Feb 22
New Moon
Feb 29
First Quarter
Mar 8
Full
Mar 14
Last Quarter
Mar 22
New

Hourly Weather History & Observations

Time (CST) Temp. Windchill Dew Point Humidity Pressure Visibility Wind Dir Wind Speed Gust Speed Precip Events Conditions
12:15 AM 33.8 °F 29.6 °F 21.2 °F 60% 29.82 in 10.0 mi WSW 4.6 mph - N/A   Clear
12:35 AM 32.0 °F - 21.2 °F 64% 29.81 in 10.0 mi Calm Calm - N/A   Clear
12:55 AM 32.0 °F 28.7 °F 21.2 °F 64% 29.81 in 10.0 mi WSW 3.5 mph - N/A   Clear
1:15 AM 32.0 °F - 23.0 °F 69% 29.80 in 10.0 mi Calm Calm - N/A   Clear
1:35 AM 32.0 °F 28.7 °F 21.2 °F 64% 29.80 in 10.0 mi WNW 3.5 mph - N/A   Clear
1:55 AM 32.0 °F 28.7 °F 21.2 °F 64% 29.79 in 10.0 mi West 3.5 mph - N/A   Clear
2:15 AM 32.0 °F 27.5 °F 21.2 °F 64% 29.79 in 10.0 mi WSW 4.6 mph - N/A   Clear
2:35 AM 32.0 °F 25.6 °F 21.2 °F 64% 29.79 in 10.0 mi WSW 6.9 mph - N/A   Clear
2:55 AM 33.8 °F 30.8 °F 23.0 °F 65% 29.78 in 10.0 mi WSW 3.5 mph - N/A   Clear
3:15 AM 33.8 °F 27.0 °F 24.8 °F 70% 29.78 in 10.0 mi WSW 8.1 mph - N/A   Clear
3:35 AM 37.4 °F 30.8 °F 24.8 °F 60% 29.76 in 10.0 mi WSW 9.2 mph - N/A   Clear
3:55 AM 37.4 °F 29.8 °F 23.0 °F 56% 29.76 in 10.0 mi WSW 11.5 mph - N/A   Clear
4:15 AM 37.4 °F 30.8 °F 23.0 °F 56% 29.76 in 10.0 mi WSW 9.2 mph - N/A   Clear
4:35 AM 35.6 °F 28.6 °F 23.0 °F 60% 29.75 in 10.0 mi WSW 9.2 mph - N/A   Clear
4:55 AM 35.6 °F 29.9 °F 24.8 °F 65% 29.74 in 10.0 mi SW 6.9 mph - N/A   Clear
5:15 AM 35.6 °F 29.2 °F 24.8 °F 65% 29.74 in 10.0 mi WSW 8.1 mph - N/A   Clear
5:35 AM 35.6 °F 28.6 °F 24.8 °F 65% 29.75 in 10.0 mi WSW 9.2 mph - N/A   Clear
5:55 AM 35.6 °F 29.9 °F 23.0 °F 60% 29.75 in 10.0 mi WSW 6.9 mph - N/A   Clear
6:55 AM 33.8 °F 28.6 °F 23.0 °F 65% 29.76 in 10.0 mi WSW 5.8 mph - N/A   Clear
7:15 AM 33.8 °F 28.6 °F 23.0 °F 65% 29.77 in 10.0 mi West 5.8 mph - N/A   Clear
7:35 AM 35.6 °F 29.9 °F 23.0 °F 60% 29.76 in 10.0 mi West 6.9 mph - N/A   Clear
7:55 AM 37.4 °F 30.3 °F 23.0 °F 56% 29.76 in 10.0 mi SW 10.4 mph - N/A   Clear
8:15 AM 35.6 °F 28.6 °F 24.8 °F 65% 29.76 in 10.0 mi SW 9.2 mph - N/A   Clear
8:35 AM 37.4 °F 32.1 °F 26.6 °F 65% 29.78 in 10.0 mi SW 6.9 mph - N/A   Clear
8:55 AM 39.2 °F 32.5 °F 26.6 °F 61% 29.79 in 10.0 mi SW 10.4 mph - N/A   Clear
9:15 AM 44.6 °F 38.8 °F 26.6 °F 49% 29.79 in 10.0 mi SW 11.5 mph - N/A   Clear
9:35 AM 44.6 °F 39.2 °F 26.6 °F 49% 29.80 in 10.0 mi WSW 10.4 mph - N/A   Clear
9:55 AM 46.4 °F 40.7 °F 24.8 °F 43% 29.79 in 10.0 mi WSW 12.7 mph - N/A   Clear
10:15 AM 51.8 °F - 24.8 °F 35% 29.78 in 10.0 mi WSW 10.4 mph - N/A   Clear
10:35 AM 53.6 °F - 26.6 °F 35% 29.78 in 10.0 mi WSW 9.2 mph - N/A   Clear
10:55 AM 55.4 °F - 26.6 °F 33% 29.76 in 10.0 mi SW 11.5 mph - N/A   Clear
11:15 AM 55.4 °F - 26.6 °F 33% 29.77 in 10.0 mi SW 10.4 mph - N/A   Clear
11:35 AM 59.0 °F - 26.6 °F 29% 29.79 in 10.0 mi WSW 11.5 mph - N/A   Clear
11:55 AM 59.0 °F - 26.6 °F 29% 29.78 in 10.0 mi WSW 11.5 mph 17.3 mph N/A   Clear
12:15 PM 62.6 °F - 26.6 °F 26% 29.76 in 10.0 mi SW 5.8 mph - N/A   Clear
12:35 PM 64.4 °F - 26.6 °F 24% 29.75 in 10.0 mi WSW 11.5 mph - N/A   Clear
1:15 PM 68.0 °F - 24.8 °F 20% 29.72 in 10.0 mi WSW 10.4 mph - N/A   Clear
1:35 PM 68.0 °F - 21.2 °F 17% 29.70 in 10.0 mi WSW 9.2 mph - N/A   Clear
1:55 PM 69.8 °F - 23.0 °F 17% 29.68 in 10.0 mi WSW 11.5 mph - N/A   Clear
2:15 PM 71.6 °F - 23.0 °F 16% 29.67 in 10.0 mi WSW 15.0 mph 23.0 mph N/A   Clear
2:35 PM 71.6 °F - 23.0 °F 16% 29.66 in 10.0 mi SW 15.0 mph 20.7 mph N/A   Clear
2:55 PM 73.4 °F - 23.0 °F 15% 29.65 in 10.0 mi West 15.0 mph 20.7 mph N/A   Clear
3:15 PM 71.6 °F - 21.2 °F 15% 29.63 in 10.0 mi WSW 15.0 mph - N/A   Clear
3:35 PM 73.4 °F - 21.2 °F 14% 29.63 in 10.0 mi WSW 17.3 mph 20.7 mph N/A   Clear
3:55 PM 73.4 °F - 21.2 °F 14% 29.62 in 10.0 mi WSW 12.7 mph 20.7 mph N/A   Clear
4:15 PM 73.4 °F - 21.2 °F 14% 29.61 in 10.0 mi WSW 12.7 mph - N/A   Clear
4:35 PM 73.4 °F - 21.2 °F 14% 29.59 in 10.0 mi WSW 13.8 mph - N/A   Clear
4:55 PM 71.6 °F - 21.2 °F 15% 29.58 in 10.0 mi WSW 12.7 mph 19.6 mph N/A   Clear
5:15 PM 71.6 °F - 21.2 °F 15% 29.57 in 10.0 mi SW 16.1 mph - N/A   Clear
5:35 PM 71.6 °F - 21.2 °F 15% 29.55 in 10.0 mi SW 6.9 mph - N/A   Clear
5:55 PM 69.8 °F - 21.2 °F 16% 29.55 in 10.0 mi SW 5.8 mph - N/A   Clear
6:15 PM 68.0 °F - 23.0 °F 18% 29.55 in 10.0 mi SW 5.8 mph - N/A   Clear
6:35 PM 64.4 °F - 23.0 °F 21% 29.55 in 10.0 mi SSW 5.8 mph - N/A   Clear
6:55 PM 59.0 °F - 26.6 °F 29% 29.55 in 10.0 mi SSW 4.6 mph - N/A   Clear
7:15 PM 57.2 °F - 26.6 °F 31% 29.53 in 10.0 mi South 9.2 mph - N/A   Clear
7:35 PM 57.2 °F - 28.4 °F 33% 29.52 in 10.0 mi South 9.2 mph - N/A   Clear
7:55 PM 57.2 °F - 28.4 °F 33% 29.52 in 10.0 mi South 10.4 mph - N/A   Clear
8:15 PM 57.2 °F - 28.4 °F 33% 29.50 in 10.0 mi South 12.7 mph - N/A   Clear
8:35 PM 55.4 °F - 28.4 °F 36% 29.49 in 10.0 mi South 9.2 mph - N/A   Clear
8:55 PM 53.6 °F - 30.2 °F 41% 29.48 in 10.0 mi SSW 10.4 mph - N/A   Clear
9:15 PM 55.4 °F - 28.4 °F 36% 29.47 in 10.0 mi SSW 16.1 mph 23.0 mph N/A   Clear
9:35 PM 57.2 °F - 28.4 °F 33% 29.46 in 10.0 mi SSW 12.7 mph - N/A   Clear
9:55 PM 57.2 °F - 28.4 °F 33% 29.44 in 10.0 mi SSW 13.8 mph - N/A   Clear
10:15 PM 55.4 °F - 28.4 °F 36% 29.44 in 10.0 mi SSW 12.7 mph - N/A   Clear
10:35 PM 53.6 °F - 28.4 °F 38% 29.43 in 10.0 mi SW 11.5 mph - N/A   Clear
10:55 PM 55.4 °F - 28.4 °F 36% 29.42 in 10.0 mi SW 12.7 mph - N/A   Clear
11:15 PM 57.2 °F - 28.4 °F 33% 29.42 in 10.0 mi SW 15.0 mph - N/A   Clear
11:35 PM 57.2 °F - 28.4 °F 33% 29.42 in 10.0 mi SW 13.8 mph - N/A   Clear
11:55 PM 55.4 °F - 28.4 °F 36% 29.40 in 10.0 mi WSW 15.0 mph - N/A   Clear